Regional Weather Roundup
Issued by NWS

Home | Current Version | Previous Version | Text Only | Print | Product List | Glossary On
Versions: 1 2 3 4 5 6 7 8 9 10 11 12 13 14 15 16 17 18 19 20 21 22 23 24 25 26 27
000
ASUS46 KSEW 261910
RWRWA

WASHINGTON REGIONAL WEATHER ROUNDUP
NATIONAL WEATHER SERVICE SEATTLE WA
1200 PM PDT WED JUL 26 2017

NOTE:"FAIR" INDICATES FEW OR NO CLOUDS BELOW 12,000 FEET WITH NO
SIGNIFICANT WEATHER AND/OR OBSTRUCTIONS TO VISIBILITY.

WAZ507-509-555>559-262000-
SEATTLE, TACOMA, EVERETT, AND VICINITY

CITY           SKY/WX    TMP DP  RH WIND       PRES   REMARKS
EVERETT        SUNNY     71  53  52 CALM      30.10F
BOEING FIELD   MOSUNNY   72  57  59 VRB5      30.08F
RENTON         SUNNY     73  59  61 N7        30.07F
SEATAC AIRPORT MOSUNNY   68  55  63 W5        30.10S
JBLM-MCCHORD   SUNNY     70  60  70 W7        30.10S
PUYALLUP       FAIR      77  57  50 CALM      30.09S
BREMERTON      SUNNY     71  55  56 CALM      30.09F
JBLM-FT LEWIS  SUNNY     70  60  69 W5        30.08F
TACOMA NARROWS SUNNY     64  55  72 VRB5      30.10F
$$

WAZ001-503-506-510-514-515-262000-
NORTH INTERIOR

CITY           SKY/WX    TMP DP  RH WIND       PRES   REMARKS
BELLINGHAM     MOSUNNY   65  56  72 S9G18     30.06F
FRIDAY HARBOR  MOSUNNY   62  54  74 E6        30.08S
EASTSOUND      MOSUNNY   64  55  72 S12       30.06F
PORT ANGELES   MOSUNNY   64  56  75 NW14      30.11S
EDIZ HOOK      FAIR      59  54  83 W18G25    30.10S
PORT TOWNSEND  FAIR      70  57  64 SE7       30.09S
NAS WHIDBEY    MOSUNNY   64  51  62 SW16      30.13S
ARLINGTON      SUNNY     72  55  55 NW6       30.08F
BURLINGTON     SUNNY     70  55  60 S9G16     30.09S
$$

WAZ020-022-039-040-504-511-512-262000-
SOUTHWEST INTERIOR

CITY           SKY/WX    TMP DP  RH WIND       PRES   REMARKS
SHELTON        SUNNY     68  57  68 SW8       30.08S
OLYMPIA        SUNNY     69  57  65 CALM      30.09F
CHEHALIS       FAIR      72  59  64 CALM      30.10F
KELSO          SUNNY     71  57  61 W7        30.10F
VANCOUVER      SUNNY     72  57  59 VRB3      30.08F
SCAPPOOSE, OR  SUNNY     75  56  51 CALM      30.07F
PORTLAND, OR   MOSUNNY   72  56  57 NW7       30.08F
$$

WAZ021-516-517-262000-
WASHINGTON COAST

CITY           SKY/WX    TMP DP  RH WIND       PRES   REMARKS
FORKS          CLOUDY    65  56  72 W8G17     30.13S
HOQUIAM        SUNNY     68  59  73 SW18      30.12R
ASTORIA, OR    CLOUDY    62  56  80 W10       30.14R
$$

WAZ019-023-024-040-567>569-262000-
CASCADE MOUNTAINS AND COLUMBIA GORGE

CITY           SKY/WX    TMP DP  RH WIND       PRES   REMARKS
STAMPEDE PASS  SUNNY     71  48  43 VRB7      30.17S
TROUTDALE, OR  MOSUNNY   74  56  53 VRB3      30.07F
HOOD RIVER, OR PTCLDY    81  55  41 W8        30.00F
THE DALLES, OR MOSUNNY   85  55  35 NW22G29   29.96F
$$

WAZ026-027-041>044-520-521-262000-
EAST SLOPES

CITY           SKY/WX    TMP DP  RH WIND       PRES   REMARKS
OMAK           SUNNY     87  40  19 S7        29.97F
WENATCHEE      SUNNY     86  43  22 E3        29.96F
ELLENSBURG     SUNNY     89  51  27 SE7       30.00F
YAKIMA         MOSUNNY   91  43  18 CALM      29.97F
SUNNYSIDE ARPT   N/A     83  58  42 E6        29.96F
YAKIMA TC      FAIR      88  39  18 W6        29.96F
$$

WAZ028-034-035-262000-
COLUMBIA BASIN

CITY           SKY/WX    TMP DP  RH WIND       PRES   REMARKS
EPHRATA        SUNNY     90  46  21 SW10      29.97F
MOSES LAKE     SUNNY     88  46  23 SW8       29.99S
PASCO          MOSUNNY   92  53  26 E5        29.95F
RICHLAND ARPT  PTCLDY    91  54  28 CALM      29.94F
HERMISTON, OR  PTSUNNY   88  56  33 NW7       29.96F
$$

WAZ036>038-262000-
NORTHEAST WASHINGTON

CITY           SKY/WX    TMP DP  RH WIND       PRES   REMARKS
SPOKANE GEIGER PTSUNNY   86  40  19 E5        30.05S
SPOKANE FELTS  SUNNY     87  44  22 NW3       30.03F
FAIRCHILD AFB  SUNNY     86  38  18 S3        30.05F
COEURDALENE,ID SUNNY     87  39  18 W6        30.06S
DEER PARK      SUNNY     85  37  18 VRB5      30.05S
$$

WAZ029>033-262000-
SOUTHEAST WASHINGTON

CITY           SKY/WX    TMP DP  RH WIND       PRES   REMARKS
PULLMAN        SUNNY     87  42  20 VRB3      30.07F
LEWISTON, ID   PTSUNNY   87  46  24 CALM      30.00F
WALLA WALLA    PTSUNNY   87  50  27 S6        29.99F
PENDLETON, OR  PTSUNNY   87  44  22 SW5       30.00S
$$




USA.gov is the U.S. government's official web portal to all federal, state and local government web resources and services.